Regional Weather Roundup
Issued by NWS

Home | Current Version | Previous Version | Graphics & Text | Print | Product List | Glossary On
Versions: 1 2 3 4 5 6 7 8 9 10 11 12 13 14 15 16 17 18 19 20 21 22 23 24 25 26 27 28 29 30 31 32 33 34 35 36 37 38 39 40 41 42 43 44 45 46 47 48 49 50
000
ASUS43 KOAX 250710
RWRNE

WEATHER ROUNDUP FOR NEBRASKA
NATIONAL WEATHER SERVICE OMAHA NE
200 AM CDT MON SEP 25 2017

NOTES: SATELLITE DATA IS BEING USED TO AUGMENT CLOUD COVER ABOVE
       12000 FEET.
       "FAIR" INDICATES FEW OR NO CLOUDS BELOW 12,000 FEET WITH NO
       SIGNIFICANT WEATHER AND/OR OBSTRUCTIONS TO VISIBILITY.


NEZ001>004-019>022-054>056-250800-
NEBRASKA PANHANDLE

CITY           SKY/WX    TMP DP  RH WIND       PRES   REMARKS
SCOTTSBLUFF    LGT RAIN  46  44  93 N6        30.12S FOG
ALLIANCE       LGT RAIN  45  43  93 NE8       30.08R
CHADRON        CLOUDY    46  42  86 NE9       30.10R
GORDON         CLOUDY    45  43  92 NE8       30.08R
KIMBALL        DRIZZLE   45  45 100 NE6       30.10S
SIDNEY         LGT RAIN  46  45  96 NE10      30.08R
$$

NEZ057>060-069>072-079>082-250800-
SOUTHWEST NEBRASKA

CITY           SKY/WX    TMP DP  RH WIND       PRES   REMARKS
NORTH PLATTE   RAIN      51  49  92 NE9       30.02R
IMPERIAL       HVY RAIN  50  48  93 E14       30.02F
LEXINGTON      CLOUDY    53  50  91 N7G16     30.00R
MCCOOK         LGT RAIN  53  53 100 N10       29.97R
OGALLALA       CLOUDY    49  48  95 E17       30.01F
$$

NEZ005>010-023>029-035>040-094-250800-
NORTH CENTRAL NEBRASKA

CITY           SKY/WX    TMP DP  RH WIND       PRES   REMARKS
VALENTINE      CLOUDY    50  47  89 N10       30.07S
AINSWORTH      LGT RAIN  49  48  98 NE10      30.06F
BROKEN BOW     RAIN      52  50  93 N12       30.02R
O`NEILL        CLOUDY    51  51 100 N8        30.04F
ORD            RAIN      52  49  89 N8        30.02S FOG
THEDFORD       RAIN      49  48  95 NE15      30.05S
$$

NEZ041-046>049-061>064-073>077-083>087-250800-
SOUTH CENTRAL NEBRASKA

CITY           SKY/WX    TMP DP  RH WIND       PRES   REMARKS
GRAND ISLAND   CLOUDY    54  54 100 N12       30.00R
AURORA         CLOUDY    55  54  97 N13       29.98R
HASTINGS       HVY RAIN  55  53  93 N14       30.00R FOG
HEBRON         CLOUDY    64  63  97 N5        29.92S
HOLDREGE       TSTM      53  52  95 NE20      29.95F
KEARNEY        LGT RAIN  53  52  96 NE16      29.98S
YORK           CLOUDY    57  57 100 N17       29.97R
$$

NEZ011>018-030>034-042>045-250800-
NORTHEAST NEBRASKA

CITY           SKY/WX    TMP DP  RH WIND       PRES   REMARKS
NORFOLK        HVY RAIN  54  53  97 N9        30.00S FOG
ALBION         CLOUDY    54  53  97 N8        30.01S
BLAIR          RAIN      63  62  97 E5        29.97R
COLUMBUS       CLOUDY    57  54  89 N9        29.99S
FREMONT        CLOUDY    60  59  98 N3        29.97S
TEKAMAH        RAIN      60  58  92 N8        29.99R FOG
WAYNE          CLOUDY    55  52  91 N9        30.00S
$$

NEZ050>053-065>068-078-088>093-250800-
SOUTHEAST NEBRASKA

CITY           SKY/WX    TMP DP  RH WIND       PRES   REMARKS
LINCOLN        LGT RAIN  63  61  93 N15G26    29.94S FOG
OMAHA EPPLEY   TSTM      64  60  87 N8        29.97F
BEATRICE       CLOUDY    68  67  96 E6        29.90S
FALLS CITY     CLEAR     71  65  81 CALM      29.91R
NEBRASKA CITY  CLOUDY    66  66 100 NE8       29.93F
PLATTSMOUTH    RAIN      65  65 100 NE10      29.93F
$$

NEZ044-045-051>053-067-250800-
OMAHA AREA

CITY           SKY/WX    TMP DP  RH WIND       PRES   REMARKS
OMAHA EPPLEY   TSTM      64  60  87 N8        29.97F
BLAIR          RAIN      63  62  97 E5        29.97R
FREMONT        CLOUDY    60  59  98 N3        29.97S
MILLARD        LGT RAIN  65  64  96 CALM      29.94F
OFFUTT AFB     TSTM      64  63  94 NE12      29.94F
PLATTSMOUTH    RAIN      65  65 100 NE10      29.93F
WAHOO          RAIN      61  60  98 N8        29.95S
$$




USA.gov is the U.S. government's official web portal to all federal, state and local government web resources and services.